| time (UTC) | temp C | wind direction | speed KPH | gust KPH | rain 1hr cm | rain 24hr cm | rain mn cm | humidity % | barometer mb |
| 20260507060817 | 8 | 295 | 0.0 | 0.0 | 0.00 | 0.00 | 0.00 | 78 | 1021.4 |
| 20260507060313 | 8 | 295 | 0.0 | 0.0 | 0.00 | 0.00 | 0.00 | 78 | 1021.5 |
| 20260507055810 | 8 | 295 | 0.0 | 0.0 | 0.00 | 0.00 | 0.00 | 77 | 1021.6 |
| 20260507055306 | 9 | 295 | 0.0 | 0.0 | 0.00 | 0.00 | 0.00 | 75 | 1021.6 |
| 20260507054802 | 9 | 295 | 0.0 | 0.0 | 0.00 | 0.00 | 0.00 | 75 | 1021.6 |
| 20260507054258 | 9 | 295 | 0.0 | 0.0 | 0.00 | 0.00 | 0.00 | 73 | 1021.6 |
| 20260507053756 | 10 | 295 | 0.0 | 0.0 | 0.00 | 0.00 | 0.00 | 72 | 1021.5 |
| 20260507053253 | 10 | 308 | 0.0 | 0.0 | 0.00 | 0.00 | 0.00 | 71 | 1021.5 |
| 20260507052752 | 10 | 308 | 0.0 | 0.0 | 0.00 | 0.00 | 0.00 | 70 | 1021.5 |
| 20260507052248 | 10 | 308 | 0.0 | 0.0 | 0.00 | 0.00 | 0.00 | 70 | 1021.5 |
| 20260507051746 | 10 | 308 | 0.0 | 0.0 | 0.00 | 0.00 | 0.00 | 71 | 1021.3 |
| 20260507051243 | 10 | 308 | 0.0 | 0.0 | 0.00 | 0.00 | 0.00 | 70 | 1021.1 |
| 20260507050739 | 10 | 308 | 0.0 | 0.0 | 0.00 | 0.00 | 0.00 | 70 | 1021.2 |
| 20260507050237 | 10 | 308 | 0.0 | 0.0 | 0.00 | 0.00 | 0.00 | 71 | 1021.2 |
| 20260507045733 | 10 | 308 | 0.0 | 0.0 | 0.00 | 0.00 | 0.00 | 71 | 1021.3 |
| 20260507045229 | 10 | 308 | 0.0 | 0.0 | 0.00 | 0.00 | 0.00 | 70 | 1021.2 |
| 20260507044727 | 10 | 308 | 0.0 | 0.0 | 0.00 | 0.00 | 0.00 | 68 | 1021.2 |
| 20260507044223 | 10 | 308 | 0.0 | 0.0 | 0.00 | 0.00 | 0.00 | 67 | 1021.2 |
| 20260507043720 | 11 | 309 | 0.0 | 0.0 | 0.00 | 0.00 | 0.00 | 66 | 1021.0 |
| 20260507043216 | 11 | 309 | 0.0 | 0.0 | 0.00 | 0.00 | 0.00 | 65 | 1020.9 |
| 20260507042713 | 11 | 306 | 0.0 | 0.0 | 0.00 | 0.00 | 0.00 | 64 | 1020.8 |
| 20260507042208 | 11 | 293 | 0.0 | 0.0 | 0.00 | 0.00 | 0.00 | 63 | 1020.5 |
| 20260507041706 | 11 | 41 | 0.0 | 1.6 | 0.00 | 0.00 | 0.00 | 62 | 1020.1 |
| 20260507041202 | 11 | 18 | 1.6 | 1.6 | 0.00 | 0.00 | 0.00 | 62 | 1020.4 |
| 20260507040659 | 11 | 44 | 0.0 | 6.4 | 0.00 | 0.00 | 0.00 | 62 | 1020.3 |
| 20260507040155 | 11 | 61 | 0.0 | 1.6 | 0.00 | 0.00 | 0.00 | 63 | 1020.0 |
| 20260507035651 | 11 | 61 | 0.0 | 1.6 | 0.00 | 0.00 | 0.00 | 64 | 1019.8 |
| 20260507035147 | 11 | 23 | 0.0 | 1.6 | 0.00 | 0.00 | 0.00 | 63 | 1020.2 |
| 20260507034644 | 11 | 57 | 0.0 | 0.0 | 0.00 | 0.00 | 0.00 | 65 | 1020.2 |
| 20260507034142 | 11 | 57 | 0.0 | 0.0 | 0.00 | 0.00 | 0.00 | 66 | 1020.5 |
| 20260507033640 | 11 | 57 | 0.0 | 0.0 | 0.00 | 0.00 | 0.00 | 65 | 1020.5 |
| 20260507033137 | 11 | 57 | 0.0 | 1.6 | 0.00 | 0.00 | 0.00 | 64 | 1020.2 |
| 20260507032635 | 11 | 57 | 1.6 | 3.2 | 0.00 | 0.00 | 0.00 | 65 | 1020.3 |
| 20260507032130 | 11 | 57 | 0.0 | 0.0 | 0.00 | 0.00 | 0.00 | 65 | 1020.3 |
| 20260507031627 | 11 | 57 | 0.0 | 0.0 | 0.00 | 0.00 | 0.00 | 66 | 1020.3 |
| 20260507031124 | 11 | 57 | 0.0 | 0.0 | 0.00 | 0.00 | 0.00 | 64 | 1020.0 |
| 20260507030620 | 11 | 57 | 0.0 | 0.0 | 0.00 | 0.00 | 0.00 | 65 | 1019.9 |
| 20260507030118 | 12 | 57 | 0.0 | 0.0 | 0.00 | 0.00 | 0.00 | 65 | 1020.1 |
| 20260507025615 | 12 | 57 | 0.0 | 0.0 | 0.00 | 0.00 | 0.00 | 64 | 1019.9 |
| 20260507025112 | 12 | 57 | 0.0 | 0.0 | 0.00 | 0.00 | 0.00 | 64 | 1019.9 |
| 20260507024610 | 12 | 57 | 0.0 | 0.0 | 0.00 | 0.00 | 0.00 | 63 | 1019.9 |
| 20260507024102 | 12 | 57 | 0.0 | 0.0 | 0.00 | 0.00 | 0.00 | 62 | 1019.7 |
| 20260507023557 | 12 | 57 | 0.0 | 0.0 | 0.00 | 0.00 | 0.00 | 62 | 1019.6 |
| 20260507023055 | 12 | 57 | 0.0 | 0.0 | 0.00 | 0.00 | 0.00 | 61 | 1019.5 |
| 20260507022552 | 13 | 57 | 0.0 | 0.0 | 0.00 | 0.00 | 0.00 | 60 | 1019.4 |
| 20260507022047 | 13 | 57 | 0.0 | 0.0 | 0.00 | 0.00 | 0.00 | 58 | 1019.4 |
| 20260507021543 | 13 | 57 | 1.6 | 3.2 | 0.00 | 0.00 | 0.00 | 57 | 1019.2 |
| 20260507021040 | 13 | 96 | 0.0 | 0.0 | 0.00 | 0.00 | 0.00 | 57 | 1019.2 |
| 20260507020538 | 13 | 40 | 0.0 | 0.0 | 0.00 | 0.00 | 0.00 | 56 | 1019.3 |
| 20260507020033 | 14 | 40 | 0.0 | 0.0 | 0.00 | 0.00 | 0.00 | 55 | 1018.9 |
| 20260507015532 | 14 | 320 | 0.0 | 0.0 | 0.00 | 0.00 | 0.00 | 55 | 1018.8 |
| 20260507015029 | 14 | 10 | 0.0 | 0.0 | 0.00 | 0.00 | 0.00 | 54 | 1019.0 |
| 20260507014525 | 15 | 344 | 0.0 | 0.0 | 0.00 | 0.00 | 0.00 | 54 | 1018.9 |
| 20260507014021 | 15 | 2 | 0.0 | 1.6 | 0.00 | 0.00 | 0.00 | 52 | 1018.8 |
| 20260507013518 | 15 | 105 | 1.6 | 1.6 | 0.00 | 0.00 | 0.00 | 52 | 1018.7 |
| 20260507013015 | 15 | 105 | 0.0 | 1.6 | 0.00 | 0.00 | 0.00 | 51 | 1018.7 |
| 20260507012512 | 15 | 37 | 1.6 | 3.2 | 0.00 | 0.00 | 0.00 | 51 | 1018.6 |
| 20260507012008 | 15 | 14 | 1.6 | 3.2 | 0.00 | 0.00 | 0.00 | 51 | 1018.8 |
| 20260507011506 | 16 | 29 | 0.0 | 3.2 | 0.00 | 0.00 | 0.00 | 50 | 1018.7 |
| 20260507011001 | 16 | 350 | 3.2 | 4.8 | 0.00 | 0.00 | 0.00 | 50 | 1018.8 |
| 20260507010456 | 16 | 352 | 1.6 | 3.2 | 0.00 | 0.00 | 0.00 | 50 | 1018.6 |
| 20260507005948 | 16 | 14 | 1.6 | 1.6 | 0.00 | 0.00 | 0.00 | 50 | 1018.5 |
| 20260507005445 | 16 | 55 | 1.6 | 3.2 | 0.00 | 0.00 | 0.00 | 50 | 1018.6 |
| 20260507004941 | 16 | 7 | 0.0 | 1.6 | 0.00 | 0.00 | 0.00 | 49 | 1018.5 |
| 20260507004438 | 16 | 0 | 0.0 | 3.2 | 0.00 | 0.00 | 0.00 | 49 | 1018.7 |
| 20260507003936 | 16 | 68 | 1.6 | 3.2 | 0.00 | 0.00 | 0.00 | 49 | 1018.6 |
| 20260507003431 | 16 | 13 | 0.0 | 0.0 | 0.00 | 0.00 | 0.00 | 50 | 1018.4 |
| 20260507002926 | 16 | 351 | 0.0 | 1.6 | 0.00 | 0.00 | 0.00 | 48 | 1018.5 |
| 20260507002422 | 17 | 2 | 0.0 | 1.6 | 0.00 | 0.00 | 0.00 | 50 | 1018.4 |
| 20260507001920 | 17 | 277 | 0.0 | 1.6 | 0.00 | 0.00 | 0.00 | 50 | 1018.4 |
| 20260507001416 | 17 | 10 | 0.0 | 3.2 | 0.00 | 0.00 | 0.00 | 49 | 1018.3 |
| 20260507000913 | 17 | 13 | 0.0 | 3.2 | 0.00 | 0.00 | 0.00 | 49 | 1018.3 |
| 20260507000408 | 17 | 242 | 1.6 | 1.6 | 0.00 | 0.00 | 0.00 | 49 | 1018.4 |
| 20260506235904 | 17 | 334 | 1.6 | 1.6 | 0.00 | 0.00 | 0.00 | 48 | 1018.3 |
| 20260506235402 | 17 | 230 | 0.0 | 1.6 | 0.00 | 0.00 | 0.00 | 48 | 1018.3 |
| 20260506234857 | 18 | 11 | 1.6 | 1.6 | 0.00 | 0.00 | 0.00 | 47 | 1018.2 |
| 20260506234355 | 17 | 25 | 0.0 | 1.6 | 0.00 | 0.00 | 0.00 | 48 | 1018.2 |
| 20260506233853 | 17 | 7 | 1.6 | 6.4 | 0.00 | 0.00 | 0.00 | 48 | 1018.0 |
| 20260506233349 | 17 | 62 | 1.6 | 3.2 | 0.00 | 0.00 | 0.00 | 48 | 1018.0 |
| 20260506232847 | 17 | 330 | 1.6 | 3.2 | 0.00 | 0.00 | 0.00 | 48 | 1017.9 |
| 20260506232342 | 18 | 57 | 0.0 | 3.2 | 0.00 | 0.00 | 0.00 | 47 | 1017.7 |
| 20260506231839 | 17 | 354 | 1.6 | 1.6 | 0.00 | 0.00 | 0.00 | 47 | 1017.9 |
| 20260506231337 | 18 | 351 | 0.0 | 4.8 | 0.00 | 0.00 | 0.00 | 47 | 1017.9 |
| 20260506230834 | 17 | 12 | 3.2 | 11.3 | 0.00 | 0.00 | 0.00 | 48 | 1017.7 |
| 20260506230330 | 18 | 22 | 3.2 | 4.8 | 0.00 | 0.00 | 0.00 | 48 | 1017.6 |
| 20260506225827 | 18 | 282 | 1.6 | 3.2 | 0.00 | 0.00 | 0.00 | 45 | 1017.7 |
| 20260506225324 | 18 | 27 | 1.6 | 1.6 | 0.00 | 0.00 | 0.00 | 47 | 1017.7 |
| 20260506224820 | 18 | 23 | 0.0 | 1.6 | 0.00 | 0.00 | 0.00 | 48 | 1017.7 |
| 20260506224317 | 17 | 112 | 3.2 | 3.2 | 0.00 | 0.00 | 0.00 | 48 | 1017.6 |
| 20260506223814 | 18 | 293 | 0.0 | 1.6 | 0.00 | 0.00 | 0.00 | 47 | 1017.6 |
| 20260506223309 | 18 | 84 | 1.6 | 4.8 | 0.00 | 0.00 | 0.00 | 47 | 1017.3 |
| 20260506222806 | 18 | 31 | 1.6 | 9.7 | 0.00 | 0.00 | 0.00 | 47 | 1017.1 |
| 20260506222305 | 18 | 280 | 6.4 | 6.4 | 0.00 | 0.00 | 0.00 | 46 | 1017.4 |
| 20260506221800 | 18 | 58 | 1.6 | 4.8 | 0.00 | 0.00 | 0.00 | 47 | 1017.1 |
| 20260506221257 | 18 | 18 | 3.2 | 4.8 | 0.00 | 0.00 | 0.00 | 47 | 1017.0 |
| 20260506220755 | 19 | 3 | 3.2 | 4.8 | 0.00 | 0.00 | 0.00 | 45 | 1017.0 |
| 20260506220249 | 19 | 355 | 3.2 | 4.8 | 0.00 | 0.00 | 0.00 | 46 | 1016.9 |
| 20260506215746 | 19 | 296 | 1.6 | 1.6 | 0.00 | 0.00 | 0.00 | 47 | 1017.1 |
| 20260506215242 | 18 | 145 | 1.6 | 6.4 | 0.00 | 0.00 | 0.00 | 47 | 1017.1 |
| 20260506214733 | 20 | 23 | 1.6 | 9.7 | 0.00 | 0.00 | 0.00 | 43 | 1017.2 |
| 20260506214230 | 19 | 21 | 0.0 | 3.2 | 0.00 | 0.00 | 0.00 | 45 | 1017.0 |
| 20260506213728 | 19 | 359 | 0.0 | 3.2 | 0.00 | 0.00 | 0.00 | 46 | 1017.2 |
| 20260506213225 | 18 | 20 | 1.6 | 4.8 | 0.00 | 0.00 | 0.00 | 45 | 1017.2 |
| 20260506212722 | 18 | 47 | 0.0 | 1.6 | 0.00 | 0.00 | 0.00 | 45 | 1017.2 |
| 20260506212218 | 18 | 341 | 0.0 | 6.4 | 0.00 | 0.00 | 0.00 | 46 | 1017.4 |
| 20260506211713 | 18 | 129 | 0.0 | 4.8 | 0.00 | 0.00 | 0.00 | 49 | 1017.5 |
| 20260506211210 | 18 | 45 | 0.0 | 4.8 | 0.00 | 0.00 | 0.00 | 50 | 1017.7 |
| 20260506210707 | 19 | 66 | 1.6 | 3.2 | 0.00 | 0.00 | 0.00 | 46 | 1017.6 |
| 20260506210204 | 18 | 28 | 1.6 | 6.4 | 0.00 | 0.00 | 0.00 | 49 | 1017.5 |
| 20260506205702 | 19 | 72 | 1.6 | 4.8 | 0.00 | 0.00 | 0.00 | 49 | 1017.6 |
| 20260506205201 | 18 | 9 | 0.0 | 3.2 | 0.00 | 0.00 | 0.00 | 48 | 1017.6 |
| 20260506204659 | 18 | 308 | 1.6 | 3.2 | 0.00 | 0.00 | 0.00 | 51 | 1017.6 |
| 20260506204156 | 18 | 29 | 1.6 | 3.2 | 0.00 | 0.00 | 0.00 | 47 | 1017.7 |
| 20260506203654 | 17 | 249 | 0.0 | 3.2 | 0.00 | 0.00 | 0.00 | 51 | 1017.7 |
| 20260506203151 | 17 | 150 | 1.6 | 4.8 | 0.00 | 0.00 | 0.00 | 52 | 1017.9 |
| 20260506202649 | 17 | 12 | 1.6 | 6.4 | 0.00 | 0.00 | 0.00 | 53 | 1018.0 |
| 20260506202145 | 18 | 28 | 1.6 | 4.8 | 0.00 | 0.00 | 0.00 | 52 | 1017.8 |
| 20260506201642 | 18 | 36 | 0.0 | 1.6 | 0.00 | 0.00 | 0.00 | 52 | 1018.1 |
| 20260506201138 | 18 | 313 | 0.0 | 1.6 | 0.00 | 0.00 | 0.00 | 52 | 1018.0 |
| 20260506200635 | 17 | 32 | 0.0 | 3.2 | 0.00 | 0.00 | 0.00 | 52 | 1018.1 |
| 20260506200132 | 17 | 321 | 0.0 | 1.6 | 0.00 | 0.00 | 0.00 | 51 | 1018.1 |
| 20260506195628 | 17 | 63 | 1.6 | 3.2 | 0.00 | 0.00 | 0.00 | 54 | 1018.0 |
| 20260506195125 | 17 | 34 | 3.2 | 6.4 | 0.00 | 0.00 | 0.00 | 52 | 1018.1 |
| 20260506194622 | 16 | 120 | 1.6 | 3.2 | 0.00 | 0.00 | 0.00 | 53 | 1018.2 |
| 20260506194119 | 17 | 35 | 1.6 | 3.2 | 0.00 | 0.00 | 0.00 | 54 | 1018.2 |
| 20260506193617 | 17 | 218 | 1.6 | 4.8 | 0.00 | 0.00 | 0.00 | 53 | 1018.3 |
| 20260506193114 | 16 | 43 | 1.6 | 3.2 | 0.00 | 0.00 | 0.00 | 55 | 1018.2 |
| 20260506192610 | 16 | 130 | 3.2 | 6.4 | 0.00 | 0.00 | 0.00 | 54 | 1018.4 |
| 20260506192106 | 16 | 29 | 1.6 | 4.8 | 0.00 | 0.00 | 0.00 | 55 | 1018.5 |
| 20260506191603 | 16 | 27 | 0.0 | 4.8 | 0.00 | 0.00 | 0.00 | 56 | 1018.3 |
| 20260506191059 | 16 | 97 | 3.2 | 6.4 | 0.00 | 0.00 | 0.00 | 55 | 1018.5 |
| 20260506190556 | 16 | 4 | 0.0 | 1.6 | 0.00 | 0.00 | 0.00 | 54 | 1018.4 |
| 20260506190053 | 16 | 75 | 0.0 | 3.2 | 0.00 | 0.00 | 0.00 | 55 | 1018.7 |
| 20260506185550 | 16 | 75 | 3.2 | 3.2 | 0.00 | 0.00 | 0.00 | 54 | 1018.7 |
| 20260506185047 | 16 | 58 | 1.6 | 6.4 | 0.00 | 0.00 | 0.00 | 55 | 1018.5 |
| 20260506184544 | 16 | 52 | 0.0 | 9.7 | 0.00 | 0.00 | 0.00 | 56 | 1018.5 |
| 20260506184042 | 15 | 16 | 4.8 | 6.4 | 0.00 | 0.00 | 0.00 | 55 | 1018.8 |
| 20260506183537 | 15 | 79 | 4.8 | 6.4 | 0.00 | 0.00 | 0.00 | 55 | 1018.7 |
| 20260506183034 | 16 | 15 | 1.6 | 4.8 | 0.00 | 0.00 | 0.00 | 56 | 1018.7 |
| 20260506182532 | 16 | 32 | 3.2 | 4.8 | 0.00 | 0.00 | 0.00 | 55 | 1018.9 |
| 20260506182029 | 16 | 11 | 0.0 | 4.8 | 0.00 | 0.00 | 0.00 | 56 | 1018.9 |
| 20260506181526 | 15 | 6 | 3.2 | 9.7 | 0.00 | 0.00 | 0.00 | 55 | 1018.8 |
| 20260506181023 | 16 | 41 | 4.8 | 6.4 | 0.00 | 0.00 | 0.00 | 55 | 1019.0 |
| 20260506180519 | 16 | 207 | 3.2 | 4.8 | 0.00 | 0.00 | 0.00 | 55 | 1019.0 |
| 20260506180011 | 16 | 116 | 4.8 | 9.7 | 0.00 | 0.00 | 0.00 | 56 | 1019.0 |
| 20260506175508 | 16 | 359 | 3.2 | 6.4 | 0.00 | 0.00 | 0.00 | 54 | 1019.3 |
| 20260506175004 | 15 | 31 | 0.0 | 4.8 | 0.00 | 0.00 | 0.00 | 57 | 1019.2 |
| 20260506174503 | 15 | 55 | 3.2 | 3.2 | 0.00 | 0.00 | 0.00 | 55 | 1019.2 |
| 20260506173958 | 15 | 29 | 4.8 | 11.3 | 0.00 | 0.00 | 0.00 | 56 | 1019.2 |
| 20260506173456 | 16 | 173 | 8.0 | 11.3 | 0.00 | 0.00 | 0.00 | 53 | 1019.4 |
| 20260506172952 | 17 | 153 | 3.2 | 9.7 | 0.00 | 0.00 | 0.00 | 53 | 1019.3 |
| 20260506172450 | 17 | 172 | 4.8 | 6.4 | 0.00 | 0.00 | 0.00 | 52 | 1019.0 |
| 20260506171940 | 15 | 30 | 0.0 | 3.2 | 0.00 | 0.00 | 0.00 | 57 | 1019.2 |
| 20260506171437 | 16 | 19 | 3.2 | 4.8 | 0.00 | 0.00 | 0.00 | 54 | 1019.3 |
| 20260506170930 | 16 | 32 | 3.2 | 4.8 | 0.00 | 0.00 | 0.00 | 55 | 1019.2 |
| 20260506170425 | 16 | 39 | 0.0 | 3.2 | 0.00 | 0.00 | 0.00 | 56 | 1019.3 |
| 20260506165919 | 15 | 52 | 6.4 | 6.4 | 0.00 | 0.00 | 0.00 | 54 | 1019.2 |
| 20260506165416 | 16 | 37 | 6.4 | 9.7 | 0.00 | 0.00 | 0.00 | 54 | 1019.3 |
| 20260506164907 | 16 | 288 | 0.0 | 3.2 | 0.00 | 0.00 | 0.00 | 56 | 1019.3 |
| 20260506164403 | 15 | 338 | 0.0 | 14.5 | 0.00 | 0.00 | 0.00 | 55 | 1019.5 |
| 20260506163902 | 16 | 7 | 4.8 | 12.9 | 0.00 | 0.00 | 0.00 | 53 | 1019.5 |
| 20260506163401 | 16 | 21 | 6.4 | 12.9 | 0.00 | 0.00 | 0.00 | 54 | 1019.5 |
| 20260506162856 | 16 | 347 | 4.8 | 11.3 | 0.00 | 0.00 | 0.00 | 55 | 1019.5 |
| 20260506162355 | 16 | 45 | 3.2 | 6.4 | 0.00 | 0.00 | 0.00 | 55 | 1019.5 |
| 20260506161852 | 15 | 32 | 0.0 | 9.7 | 0.00 | 0.00 | 0.00 | 58 | 1019.4 |
| 20260506161349 | 15 | 43 | 1.6 | 11.3 | 0.00 | 0.00 | 0.00 | 57 | 1019.3 |
| 20260506160847 | 15 | 211 | 1.6 | 9.7 | 0.00 | 0.00 | 0.00 | 59 | 1019.3 |
| 20260506160343 | 14 | 22 | 1.6 | 4.8 | 0.00 | 0.00 | 0.00 | 59 | 1019.2 |
| 20260506155842 | 14 | 151 | 3.2 | 12.9 | 0.00 | 0.00 | 0.00 | 59 | 1019.2 |
| 20260506155338 | 13 | 11 | 1.6 | 4.8 | 0.00 | 0.00 | 0.00 | 63 | 1019.2 |
| 20260506153450 | 13 | 11 | 1.6 | 4.8 | 0.00 | 0.00 | 0.00 | 63 | 1019.2 |
| 20260506152948 | 13 | 341 | 3.2 | 11.3 | 0.00 | 0.00 | 0.00 | 62 | 1019.0 |
| 20260506152444 | 12 | 16 | 4.8 | 12.9 | 0.00 | 0.00 | 0.00 | 62 | 1019.0 |
| 20260506151943 | 13 | 267 | 4.8 | 14.5 | 0.00 | 0.00 | 0.00 | 63 | 1019.0 |
| 20260506151440 | 13 | 34 | 8.0 | 9.7 | 0.00 | 0.00 | 0.00 | 64 | 1019.3 |
| 20260506150938 | 12 | 72 | 3.2 | 6.4 | 0.00 | 0.00 | 0.00 | 66 | 1019.3 |
| 20260506150433 | 12 | 50 | 1.6 | 6.4 | 0.00 | 0.00 | 0.00 | 67 | 1019.0 |
| 20260506145930 | 12 | 26 | 3.2 | 4.8 | 0.00 | 0.00 | 0.00 | 68 | 1019.3 |
| 20260506145427 | 12 | 351 | 3.2 | 6.4 | 0.00 | 0.00 | 0.00 | 68 | 1019.0 |
| 20260506144925 | 11 | 16 | 1.6 | 4.8 | 0.00 | 0.00 | 0.00 | 71 | 1018.9 |
| 20260506144421 | 11 | 19 | 1.6 | 4.8 | 0.00 | 0.00 | 0.00 | 73 | 1018.7 |
| 20260506143919 | 11 | 29 | 3.2 | 9.7 | 0.00 | 0.00 | 0.00 | 74 | 1018.9 |
| 20260506143416 | 10 | 259 | 3.2 | 4.8 | 0.00 | 0.00 | 0.00 | 76 | 1018.5 |
| 20260506142914 | 10 | 7 | 1.6 | 9.7 | 0.00 | 0.00 | 0.00 | 76 | 1018.4 |
| 20260506142412 | 10 | 20 | 1.6 | 3.2 | 0.00 | 0.00 | 0.00 | 76 | 1018.7 |
| 20260506141909 | 10 | 66 | 0.0 | 1.6 | 0.00 | 0.00 | 0.00 | 77 | 1018.7 |
| 20260506141407 | 10 | 179 | 3.2 | 11.3 | 0.00 | 0.00 | 0.00 | 76 | 1018.8 |
| 20260506140905 | 10 | 50 | 1.6 | 3.2 | 0.00 | 0.00 | 0.00 | 77 | 1018.6 |
| 20260506140402 | 10 | 15 | 1.6 | 3.2 | 0.00 | 0.00 | 0.00 | 76 | 1018.7 |
| 20260506135859 | 10 | 38 | 1.6 | 6.4 | 0.00 | 0.00 | 0.00 | 77 | 1018.7 |
| 20260506135356 | 10 | 25 | 0.0 | 3.2 | 0.00 | 0.00 | 0.00 | 78 | 1018.5 |
| 20260506134852 | 10 | 17 | 1.6 | 1.6 | 0.00 | 0.00 | 0.00 | 79 | 1018.8 |
| 20260506134348 | 10 | 277 | 0.0 | 6.4 | 0.00 | 0.00 | 0.00 | 80 | 1018.7 |
| 20260506133845 | 9 | 22 | 1.6 | 6.4 | 0.00 | 0.00 | 0.00 | 80 | 1018.7 |
| 20260506133342 | 9 | 20 | 1.6 | 3.2 | 0.00 | 0.00 | 0.00 | 81 | 1019.0 |
| 20260506132839 | 9 | 187 | 1.6 | 4.8 | 0.00 | 0.00 | 0.00 | 80 | 1018.9 |
| 20260506132336 | 9 | 288 | 0.0 | 3.2 | 0.00 | 0.00 | 0.00 | 82 | 1018.8 |
| 20260506131834 | 9 | 153 | 3.2 | 6.4 | 0.00 | 0.00 | 0.00 | 82 | 1018.7 |
| 20260506131330 | 9 | 19 | 1.6 | 3.2 | 0.00 | 0.00 | 0.00 | 82 | 1018.8 |
| 20260506130827 | 9 | 17 | 0.0 | 3.2 | 0.00 | 0.00 | 0.00 | 82 | 1018.5 |
| 20260506130324 | 9 | 3 | 0.0 | 1.6 | 0.00 | 0.00 | 0.00 | 82 | 1018.7 |
| 20260506125822 | 9 | 18 | 1.6 | 3.2 | 0.00 | 0.00 | 0.00 | 82 | 1018.5 |
| 20260506125320 | 9 | 271 | 0.0 | 3.2 | 0.00 | 0.00 | 0.00 | 83 | 1018.7 |
| 20260506124818 | 9 | 2 | 1.6 | 3.2 | 0.00 | 0.00 | 0.00 | 83 | 1018.5 |
| 20260506124315 | 9 | 67 | 0.0 | 3.2 | 0.00 | 0.00 | 0.00 | 83 | 1018.4 |
| 20260506123812 | 8 | 286 | 1.6 | 3.2 | 0.00 | 0.00 | 0.00 | 84 | 1018.1 |
| 20260506123311 | 8 | 16 | 0.0 | 0.0 | 0.00 | 0.00 | 0.00 | 84 | 1018.1 |
| 20260506122807 | 8 | 42 | 0.0 | 1.6 | 0.00 | 0.00 | 0.00 | 84 | 1018.1 |
| 20260506122306 | 8 | 302 | 0.0 | 1.6 | 0.00 | 0.00 | 0.00 | 84 | 1017.9 |
| 20260506121802 | 8 | 183 | 1.6 | 3.2 | 0.00 | 0.00 | 0.00 | 84 | 1017.7 |
| 20260506121259 | 8 | 49 | 1.6 | 1.6 | 0.00 | 0.00 | 0.00 | 84 | 1017.7 |
| 20260506120756 | 8 | 50 | 1.6 | 9.7 | 0.00 | 0.00 | 0.00 | 84 | 1017.5 |
| 20260506120254 | 8 | 11 | 1.6 | 4.8 | 0.00 | 0.00 | 0.00 | 84 | 1017.5 |
| 20260506115751 | 8 | 7 | 0.0 | 1.6 | 0.00 | 0.00 | 0.00 | 84 | 1017.7 |
| 20260506115250 | 8 | 21 | 0.0 | 1.6 | 0.00 | 0.00 | 0.00 | 84 | 1017.5 |
| 20260506114747 | 8 | 307 | 0.0 | 6.4 | 0.00 | 0.00 | 0.00 | 84 | 1017.5 |
| 20260506114244 | 8 | 21 | 1.6 | 3.2 | 0.00 | 0.00 | 0.00 | 84 | 1017.5 |
| 20260506113743 | 8 | 69 | 1.6 | 1.6 | 0.00 | 0.00 | 0.00 | 84 | 1017.3 |
| 20260506113240 | 8 | 16 | 1.6 | 4.8 | 0.00 | 0.00 | 0.00 | 84 | 1017.3 |
| 20260506112736 | 8 | 5 | 0.0 | 1.6 | 0.00 | 0.00 | 0.00 | 84 | 1017.4 |
| 20260506112234 | 8 | 9 | 1.6 | 1.6 | 0.00 | 0.00 | 0.00 | 84 | 1016.9 |
| 20260506111731 | 8 | 326 | 0.0 | 0.0 | 0.00 | 0.00 | 0.00 | 83 | 1017.2 |
| 20260506111229 | 8 | 2 | 0.0 | 0.0 | 0.00 | 0.00 | 0.00 | 83 | 1017.2 |
| 20260506110726 | 8 | 2 | 0.0 | 1.6 | 0.00 | 0.00 | 0.00 | 83 | 1017.1 |
| 20260506110224 | 8 | 83 | 1.6 | 9.7 | 0.00 | 0.00 | 0.00 | 83 | 1016.8 |
| 20260506105720 | 8 | 40 | 0.0 | 3.2 | 0.00 | 0.00 | 0.00 | 82 | 1016.9 |
| 20260506105217 | 9 | 321 | 0.0 | 1.6 | 0.00 | 0.00 | 0.00 | 82 | 1017.5 |
| 20260506104715 | 9 | 261 | 0.0 | 0.0 | 0.00 | 0.00 | 0.00 | 81 | 1017.9 |
| 20260506104212 | 9 | 1 | 0.0 | 1.6 | 0.00 | 0.00 | 0.00 | 81 | 1018.0 |
| 20260506103709 | 9 | 177 | 1.6 | 1.6 | 0.00 | 0.00 | 0.00 | 81 | 1018.1 |
| 20260506103206 | 9 | 15 | 0.0 | 1.6 | 0.00 | 0.00 | 0.00 | 81 | 1018.0 |
| 20260506102704 | 9 | 15 | 0.0 | 1.6 | 0.00 | 0.00 | 0.00 | 80 | 1017.5 |
| 20260506102202 | 9 | 16 | 1.6 | 1.6 | 0.00 | 0.00 | 0.00 | 80 | 1017.6 |
| 20260506101658 | 9 | 15 | 0.0 | 1.6 | 0.00 | 0.00 | 0.00 | 80 | 1017.6 |
| 20260506101155 | 9 | 15 | 0.0 | 0.0 | 0.00 | 0.00 | 0.00 | 80 | 1017.6 |
| 20260506100653 | 9 | 15 | 0.0 | 0.0 | 0.00 | 0.00 | 0.00 | 81 | 1017.7 |
| 20260506100151 | 9 | 15 | 0.0 | 0.0 | 0.00 | 0.00 | 0.00 | 81 | 1017.4 |
| 20260506095649 | 9 | 15 | 0.0 | 0.0 | 0.00 | 0.00 | 0.00 | 80 | 1017.4 |
| 20260506095145 | 9 | 15 | 0.0 | 1.6 | 0.00 | 0.00 | 0.00 | 80 | 1017.1 |
| 20260506094643 | 9 | 15 | 0.0 | 1.6 | 0.00 | 0.00 | 0.00 | 80 | 1017.1 |
| 20260506094141 | 9 | 15 | 0.0 | 3.2 | 0.00 | 0.00 | 0.00 | 80 | 1016.9 |
| 20260506093639 | 9 | 15 | 0.0 | 1.6 | 0.00 | 0.00 | 0.00 | 80 | 1016.7 |
| 20260506093136 | 9 | 15 | 0.0 | 0.0 | 0.00 | 0.00 | 0.00 | 80 | 1016.6 |
| 20260506092634 | 9 | 15 | 0.0 | 1.6 | 0.00 | 0.00 | 0.00 | 80 | 1016.4 |
| 20260506092131 | 9 | 15 | 0.0 | 1.6 | 0.00 | 0.00 | 0.00 | 79 | 1016.4 |
| 20260506091629 | 9 | 15 | 0.0 | 1.6 | 0.00 | 0.00 | 0.00 | 79 | 1016.3 |
| 20260506091126 | 9 | 15 | 0.0 | 0.0 | 0.00 | 0.00 | 0.00 | 78 | 1016.5 |
| 20260506090624 | 9 | 15 | 0.0 | 1.6 | 0.00 | 0.00 | 0.00 | 78 | 1016.4 |
| 20260506090120 | 9 | 15 | 0.0 | 1.6 | 0.00 | 0.00 | 0.00 | 78 | 1016.3 |
| 20260506085617 | 9 | 15 | 0.0 | 1.6 | 0.00 | 0.00 | 0.00 | 77 | 1016.5 |
| 20260506085113 | 9 | 15 | 0.0 | 1.6 | 0.00 | 0.00 | 0.00 | 77 | 1016.3 |
| 20260506084610 | 9 | 15 | 1.6 | 1.6 | 0.00 | 0.00 | 0.00 | 77 | 1016.3 |
| 20260506084106 | 9 | 16 | 0.0 | 1.6 | 0.00 | 0.00 | 0.00 | 77 | 1016.3 |
| 20260506083604 | 9 | 16 | 1.6 | 1.6 | 0.00 | 0.00 | 0.00 | 77 | 1016.1 |
| 20260506083101 | 9 | 16 | 1.6 | 1.6 | 0.00 | 0.00 | 0.00 | 77 | 1015.9 |
| 20260506082557 | 9 | 16 | 0.0 | 1.6 | 0.00 | 0.00 | 0.00 | 77 | 1015.3 |
| 20260506082054 | 9 | 16 | 0.0 | 3.2 | 0.00 | 0.00 | 0.00 | 77 | 1015.4 |
| 20260506081552 | 9 | 33 | 1.6 | 1.6 | 0.00 | 0.00 | 0.00 | 76 | 1015.4 |
| 20260506081049 | 9 | 33 | 0.0 | 1.6 | 0.00 | 0.00 | 0.00 | 76 | 1015.5 |
| 20260506080547 | 9 | 351 | 0.0 | 0.0 | 0.00 | 0.00 | 0.00 | 76 | 1015.4 |
| 20260506073027 | 9 | 258 | 0.0 | 3.2 | 0.00 | 0.00 | 0.00 | 75 | 1014.9 |
| 20260506072524 | 9 | 3 | 3.2 | 6.4 | 0.00 | 0.00 | 0.00 | 75 | 1014.8 |
| 20260506072022 | 9 | 143 | 0.0 | 1.6 | 0.00 | 0.00 | 0.00 | 75 | 1014.8 |
| 20260506071520 | 9 | 137 | 0.0 | 1.6 | 0.00 | 0.00 | 0.00 | 75 | 1014.7 |
| 20260506071017 | 9 | 5 | 0.0 | 1.6 | 0.00 | 0.00 | 0.00 | 75 | 1014.6 |
| 20260506070514 | 9 | 136 | 0.0 | 1.6 | 0.00 | 0.00 | 0.00 | 75 | 1014.6 |
| 20260506062451 | 9 | 343 | 0.0 | 3.2 | 0.00 | 0.00 | 0.00 | 74 | 1015.1 |
| 20260506061947 | 9 | 34 | 0.0 | 4.8 | 0.00 | 0.00 | 0.00 | 74 | 1015.0 |
| 20260506061444 | 9 | 31 | 1.6 | 3.2 | 0.00 | 0.00 | 0.00 | 74 | 1014.9 |